| time (UTC) | temp F | wind direction | speed knots | gust knots | rain 1hr in | rain 24hr in | rain mn in | humidity % | barometer mb |
| 20260507192604 | 56 | 54 | 5.2 | 6.1 | 0.00 | 0.00 | 0.00 | 72 | 1005.4 |
| 20260507192103 | 56 | 38 | 4.3 | 7.8 | 0.00 | 0.00 | 0.00 | 74 | 1005.5 |
| 20260507191604 | 56 | 36 | 6.1 | 7.0 | 0.00 | 0.00 | 0.00 | 72 | 1005.4 |
| 20260507191104 | 56 | 72 | 4.3 | 8.7 | 0.00 | 0.00 | 0.00 | 71 | 1005.6 |
| 20260507190604 | 56 | 66 | 5.2 | 7.0 | 0.00 | 0.00 | 0.00 | 73 | 1005.7 |
| 20260507190104 | 56 | 61 | 4.3 | 7.0 | 0.00 | 0.00 | 0.00 | 73 | 1005.8 |
| 20260507185619 | 56 | 49 | 6.1 | 7.0 | 0.00 | 0.00 | 0.00 | 75 | 1005.7 |
| 20260507185104 | 55 | 54 | 5.2 | 6.1 | 0.00 | 0.00 | 0.00 | 74 | 1005.9 |
| 20260507184603 | 56 | 53 | 4.3 | 6.1 | 0.00 | 0.00 | 0.00 | 74 | 1005.9 |
| 20260507184104 | 55 | 45 | 4.3 | 5.2 | 0.00 | 0.00 | 0.00 | 74 | 1006.0 |
| 20260507183603 | 55 | 72 | 3.5 | 7.0 | 0.00 | 0.00 | 0.00 | 75 | 1006.1 |
| 20260507183104 | 54 | 57 | 7.0 | 8.7 | 0.00 | 0.00 | 0.00 | 76 | 1006.1 |
| 20260507182604 | 54 | 56 | 7.0 | 7.8 | 0.00 | 0.00 | 0.00 | 75 | 1006.1 |
| 20260507182103 | 55 | 60 | 7.0 | 8.7 | 0.00 | 0.00 | 0.00 | 75 | 1006.1 |
| 20260507181604 | 54 | 55 | 7.0 | 7.8 | 0.00 | 0.00 | 0.00 | 74 | 1006.1 |
| 20260507181109 | 54 | 62 | 6.1 | 7.8 | 0.00 | 0.00 | 0.00 | 74 | 1006.1 |
| 20260507180604 | 54 | 64 | 7.0 | 7.8 | 0.00 | 0.00 | 0.00 | 74 | 1006.1 |
| 20260507180104 | 54 | 55 | 7.0 | 7.8 | 0.00 | 0.00 | 0.00 | 74 | 1006.2 |
| 20260507175616 | 54 | 52 | 6.1 | 7.0 | 0.00 | 0.00 | 0.00 | 73 | 1006.4 |
| 20260507175104 | 54 | 55 | 6.1 | 7.0 | 0.00 | 0.00 | 0.00 | 72 | 1006.6 |
| 20260507174605 | 54 | 50 | 5.2 | 6.1 | 0.00 | 0.00 | 0.00 | 72 | 1006.6 |
| 20260507174104 | 54 | 58 | 5.2 | 6.1 | 0.00 | 0.00 | 0.00 | 72 | 1006.7 |
| 20260507173604 | 54 | 61 | 5.2 | 6.1 | 0.00 | 0.00 | 0.00 | 72 | 1006.7 |
| 20260507173104 | 54 | 65 | 4.3 | 6.1 | 0.00 | 0.00 | 0.00 | 73 | 1006.7 |
| 20260507172604 | 54 | 59 | 4.3 | 6.1 | 0.00 | 0.00 | 0.00 | 73 | 1006.6 |
| 20260507172104 | 54 | 45 | 5.2 | 6.1 | 0.00 | 0.00 | 0.00 | 74 | 1006.6 |
| 20260507171605 | 54 | 40 | 5.2 | 6.1 | 0.00 | 0.00 | 0.00 | 74 | 1006.7 |
| 20260507171104 | 54 | 34 | 4.3 | 6.1 | 0.00 | 0.00 | 0.00 | 74 | 1006.8 |
| 20260507170609 | 54 | 17 | 4.3 | 5.2 | 0.00 | 0.00 | 0.00 | 74 | 1007.0 |
| 20260507165602 | 54 | 18 | 3.5 | 4.3 | 0.00 | 0.00 | 0.00 | 73 | 1007.1 |
| 20260507165104 | 54 | 25 | 3.5 | 5.2 | 0.00 | 0.00 | 0.00 | 74 | 1007.2 |
| 20260507164602 | 54 | 20 | 4.3 | 5.2 | 0.00 | 0.00 | 0.00 | 76 | 1007.2 |
| 20260507164104 | 53 | 28 | 3.5 | 6.1 | 0.00 | 0.00 | 0.00 | 76 | 1007.1 |
| 20260507163604 | 53 | 11 | 4.3 | 7.0 | 0.00 | 0.00 | 0.00 | 76 | 1007.2 |
| 20260507163104 | 53 | 20 | 4.3 | 5.2 | 0.00 | 0.00 | 0.00 | 77 | 1007.1 |
| 20260507162604 | 53 | 4 | 4.3 | 6.1 | 0.00 | 0.00 | 0.00 | 77 | 1007.1 |
| 20260507162102 | 53 | 353 | 5.2 | 6.1 | 0.00 | 0.00 | 0.00 | 78 | 1007.1 |
| 20260507161603 | 53 | 335 | 5.2 | 7.0 | 0.00 | 0.00 | 0.00 | 79 | 1007.4 |
| 20260507161104 | 53 | 343 | 6.1 | 7.0 | 0.00 | 0.00 | 0.00 | 80 | 1007.4 |
| 20260507160609 | 53 | 337 | 6.1 | 7.8 | 0.00 | 0.00 | 0.00 | 82 | 1007.4 |
| 20260507160104 | 53 | 331 | 7.0 | 8.7 | 0.00 | 0.00 | 0.00 | 83 | 1007.3 |
| 20260507155604 | 52 | 328 | 7.8 | 9.6 | 0.00 | 0.00 | 0.00 | 84 | 1007.4 |
| 20260507155102 | 52 | 324 | 8.7 | 10.4 | 0.00 | 0.00 | 0.00 | 84 | 1007.5 |
| 20260507154604 | 52 | 319 | 8.7 | 9.6 | 0.00 | 0.00 | 0.00 | 84 | 1007.5 |
| 20260507154102 | 52 | 323 | 7.0 | 8.7 | 0.00 | 0.00 | 0.00 | 85 | 1007.5 |
| 20260507153604 | 52 | 321 | 7.0 | 8.7 | 0.00 | 0.00 | 0.00 | 85 | 1007.7 |
| 20260507153110 | 52 | 320 | 7.0 | 9.6 | 0.00 | 0.00 | 0.00 | 86 | 1007.7 |
| 20260507152604 | 52 | 316 | 7.0 | 8.7 | 0.00 | 0.00 | 0.00 | 85 | 1007.7 |
| 20260507152104 | 51 | 314 | 7.8 | 8.7 | 0.00 | 0.00 | 0.00 | 85 | 1007.8 |
| 20260507151603 | 51 | 316 | 7.0 | 9.6 | 0.00 | 0.00 | 0.00 | 85 | 1007.7 |
| 20260507151102 | 51 | 315 | 6.1 | 7.8 | 0.00 | 0.00 | 0.00 | 85 | 1007.5 |
| 20260507150603 | 51 | 313 | 5.2 | 7.8 | 0.00 | 0.00 | 0.00 | 84 | 1007.4 |
| 20260507150104 | 51 | 327 | 5.2 | 7.0 | 0.00 | 0.00 | 0.00 | 85 | 1007.5 |
| 20260507145602 | 50 | 316 | 4.3 | 6.1 | 0.00 | 0.00 | 0.00 | 85 | 1007.5 |
| 20260507145103 | 50 | 307 | 4.3 | 5.2 | 0.00 | 0.00 | 0.00 | 86 | 1007.6 |
| 20260507144604 | 50 | 314 | 3.5 | 6.1 | 0.00 | 0.00 | 0.00 | 87 | 1007.7 |
| 20260507144102 | 49 | 329 | 6.1 | 7.0 | 0.00 | 0.00 | 0.00 | 87 | 1007.7 |
| 20260507143602 | 50 | 319 | 5.2 | 7.8 | 0.00 | 0.00 | 0.00 | 88 | 1007.7 |
| 20260507143102 | 49 | 336 | 6.1 | 7.0 | 0.00 | 0.00 | 0.00 | 89 | 1007.8 |
| 20260507142602 | 49 | 341 | 5.2 | 7.0 | 0.00 | 0.00 | 0.00 | 90 | 1007.6 |
| 20260507142102 | 49 | 334 | 7.0 | 8.7 | 0.00 | 0.00 | 0.00 | 89 | 1007.8 |
| 20260507141602 | 49 | 337 | 7.8 | 9.6 | 0.00 | 0.00 | 0.00 | 90 | 1007.7 |
| 20260507141102 | 49 | 339 | 7.0 | 8.7 | 0.00 | 0.00 | 0.00 | 90 | 1007.7 |
| 20260507140602 | 49 | 351 | 7.0 | 9.6 | 0.00 | 0.00 | 0.00 | 90 | 1007.6 |
| 20260507135603 | 48 | 341 | 9.6 | 10.4 | 0.00 | 0.00 | 0.00 | 91 | 1007.7 |
| 20260507135102 | 48 | 339 | 8.7 | 10.4 | 0.00 | 0.00 | 0.00 | 91 | 1007.6 |
| 20260507134602 | 48 | 336 | 9.6 | 11.3 | 0.00 | 0.00 | 0.00 | 92 | 1007.7 |
| 20260507134102 | 48 | 336 | 7.8 | 9.6 | 0.00 | 0.00 | 0.00 | 92 | 1007.7 |
| 20260507133602 | 48 | 344 | 7.8 | 9.6 | 0.00 | 0.00 | 0.00 | 92 | 1007.5 |
| 20260507133104 | 48 | 351 | 7.0 | 9.6 | 0.00 | 0.00 | 0.00 | 92 | 1007.3 |
| 20260507132603 | 48 | 358 | 7.0 | 7.8 | 0.00 | 0.00 | 0.00 | 92 | 1007.3 |
| 20260507132102 | 48 | 1 | 6.1 | 7.8 | 0.00 | 0.00 | 0.00 | 93 | 1007.3 |
| 20260507131602 | 48 | 358 | 7.0 | 8.7 | 0.00 | 0.00 | 0.00 | 93 | 1007.3 |
| 20260507131102 | 48 | 343 | 7.0 | 11.3 | 0.00 | 0.00 | 0.00 | 93 | 1007.5 |
| 20260507130602 | 48 | 333 | 8.7 | 11.3 | 0.00 | 0.00 | 0.00 | 93 | 1007.9 |
| 20260507125602 | 48 | 338 | 10.4 | 11.3 | 0.00 | 0.00 | 0.00 | 93 | 1007.8 |
| 20260507125102 | 48 | 341 | 9.6 | 13.0 | 0.00 | 0.00 | 0.00 | 93 | 1007.8 |
| 20260507124602 | 47 | 349 | 10.4 | 13.9 | 0.00 | 0.00 | 0.00 | 93 | 1007.7 |
| 20260507124102 | 48 | 337 | 12.2 | 13.9 | 0.00 | 0.00 | 0.00 | 93 | 1007.8 |
| 20260507123602 | 48 | 344 | 11.3 | 13.9 | 0.00 | 0.00 | 0.00 | 93 | 1007.7 |
| 20260507123102 | 48 | 346 | 10.4 | 13.9 | 0.00 | 0.00 | 0.00 | 93 | 1007.6 |
| 20260507122602 | 48 | 355 | 9.6 | 11.3 | 0.00 | 0.00 | 0.00 | 93 | 1007.4 |
| 20260507122101 | 48 | 354 | 8.7 | 13.0 | 0.00 | 0.00 | 0.00 | 93 | 1007.5 |
| 20260507121602 | 48 | 345 | 11.3 | 13.9 | 0.00 | 0.00 | 0.00 | 93 | 1007.7 |
| 20260507121102 | 48 | 346 | 11.3 | 14.8 | 0.00 | 0.00 | 0.00 | 93 | 1007.5 |
| 20260507120602 | 48 | 346 | 13.0 | 16.5 | 0.00 | 0.00 | 0.00 | 93 | 1007.5 |
| 20260507115602 | 48 | 346 | 14.8 | 19.1 | 0.00 | 0.00 | 0.00 | 93 | 1007.4 |
| 20260507115102 | 48 | 347 | 15.6 | 21.7 | 0.00 | 0.00 | 0.00 | 93 | 1007.5 |
| 20260507114602 | 49 | 348 | 16.5 | 20.9 | 0.00 | 0.00 | 0.00 | 93 | 1007.7 |
| 20260507114102 | 49 | 342 | 16.5 | 20.0 | 0.00 | 0.00 | 0.00 | 93 | 1007.8 |
| 20260507113602 | 49 | 347 | 13.9 | 18.2 | 0.00 | 0.00 | 0.00 | 94 | 1007.8 |
| 20260507113102 | 49 | 350 | 11.3 | 13.0 | 0.00 | 0.00 | 0.00 | 94 | 1007.7 |
| 20260507112602 | 49 | 9 | 11.3 | 14.8 | 0.00 | 0.00 | 0.00 | 94 | 1007.1 |
| 20260507112102 | 49 | 14 | 12.2 | 14.8 | 0.00 | 0.00 | 0.00 | 93 | 1006.9 |
| 20260507111602 | 49 | 16 | 13.9 | 17.4 | 0.00 | 0.00 | 0.00 | 94 | 1006.8 |
| 20260507111101 | 49 | 15 | 12.2 | 16.5 | 0.00 | 0.00 | 0.00 | 94 | 1006.8 |
| 20260507110602 | 49 | 12 | 13.0 | 17.4 | 0.00 | 0.00 | 0.00 | 94 | 1006.9 |
| 20260507105601 | 49 | 2 | 13.0 | 16.5 | 0.00 | 0.00 | 0.00 | 94 | 1007.2 |
| 20260507105102 | 49 | 6 | 13.9 | 16.5 | 0.00 | 0.00 | 0.00 | 94 | 1007.1 |
| 20260507104602 | 49 | 5 | 13.0 | 16.5 | 0.00 | 0.00 | 0.00 | 94 | 1006.9 |
| 20260507104101 | 49 | 2 | 13.9 | 15.6 | 0.00 | 0.00 | 0.00 | 94 | 1006.8 |
| 20260507103602 | 49 | 5 | 13.0 | 15.6 | 0.00 | 0.00 | 0.00 | 94 | 1006.8 |
| 20260507103101 | 49 | 4 | 13.9 | 16.5 | 0.00 | 0.00 | 0.00 | 95 | 1006.9 |
| 20260507102601 | 49 | 12 | 13.0 | 16.5 | 0.00 | 0.00 | 0.00 | 95 | 1006.7 |
| 20260507102101 | 49 | 14 | 12.2 | 17.4 | 0.00 | 0.00 | 0.00 | 95 | 1006.5 |
| 20260507101601 | 49 | 12 | 13.0 | 16.5 | 0.00 | 0.00 | 0.00 | 95 | 1006.5 |
| 20260507101101 | 49 | 13 | 12.2 | 13.9 | 0.00 | 0.00 | 0.00 | 95 | 1006.6 |
| 20260507100602 | 49 | 12 | 12.2 | 14.8 | 0.00 | 0.00 | 0.00 | 95 | 1006.4 |
| 20260507095601 | 49 | 12 | 11.3 | 13.9 | 0.00 | 0.00 | 0.00 | 95 | 1006.3 |
| 20260507095101 | 49 | 18 | 10.4 | 15.6 | 0.00 | 0.00 | 0.00 | 95 | 1006.4 |
| 20260507094601 | 49 | 19 | 13.0 | 15.6 | 0.00 | 0.00 | 0.00 | 95 | 1005.6 |
| 20260507094102 | 50 | 7 | 10.4 | 16.5 | 0.00 | 0.00 | 0.00 | 95 | 1006.5 |
| 20260507093601 | 50 | 2 | 13.0 | 17.4 | 0.00 | 0.00 | 0.00 | 95 | 1006.5 |
| 20260507093101 | 51 | 6 | 14.8 | 19.1 | 0.00 | 0.00 | 0.00 | 94 | 1006.2 |
| 20260507092601 | 51 | 7 | 12.2 | 16.5 | 0.00 | 0.00 | 0.00 | 94 | 1005.9 |
| 20260507092101 | 52 | 351 | 13.0 | 16.5 | 0.00 | 0.00 | 0.00 | 94 | 1006.1 |
| 20260507091601 | 52 | 3 | 15.6 | 18.2 | 0.00 | 0.00 | 0.00 | 95 | 1005.9 |
| 20260507091101 | 52 | 333 | 5.2 | 9.6 | 0.00 | 0.00 | 0.00 | 95 | 1006.0 |
| 20260507090601 | 53 | 306 | 7.0 | 9.6 | 0.00 | 0.00 | 0.00 | 94 | 1006.2 |
| 20260507085601 | 53 | 289 | 7.0 | 10.4 | 0.00 | 0.00 | 0.00 | 95 | 1006.2 |
| 20260507085101 | 54 | 255 | 7.0 | 10.4 | 0.00 | 0.00 | 0.00 | 95 | 1006.7 |
| 20260507084601 | 54 | 259 | 6.1 | 9.6 | 0.00 | 0.00 | 0.00 | 95 | 1006.7 |
| 20260507084101 | 54 | 237 | 5.2 | 9.6 | 0.00 | 0.00 | 0.00 | 95 | 1006.3 |
| 20260507083601 | 54 | 245 | 5.2 | 8.7 | 0.00 | 0.00 | 0.00 | 95 | 1006.5 |
| 20260507083101 | 54 | 204 | 5.2 | 8.7 | 0.00 | 0.00 | 0.00 | 95 | 1005.8 |
| 20260507082601 | 54 | 195 | 4.3 | 7.8 | 0.00 | 0.00 | 0.00 | 95 | 1005.5 |
| 20260507082101 | 54 | 192 | 3.5 | 7.8 | 0.00 | 0.00 | 0.00 | 95 | 1005.2 |
| 20260507081601 | 55 | 192 | 2.6 | 5.2 | 0.00 | 0.00 | 0.00 | 95 | 1005.1 |
| 20260507081101 | 55 | 180 | 1.7 | 5.2 | 0.00 | 0.00 | 0.00 | 95 | 1005.2 |
| 20260507080601 | 55 | 199 | 2.6 | 4.3 | 0.00 | 0.00 | 0.00 | 95 | 1005.2 |
| 20260507075601 | 55 | 187 | 1.7 | 4.3 | 0.00 | 0.00 | 0.00 | 95 | 1005.3 |
| 20260507075101 | 55 | 204 | 2.6 | 4.3 | 0.00 | 0.00 | 0.00 | 95 | 1005.3 |
| 20260507074601 | 55 | 199 | 3.5 | 6.1 | 0.00 | 0.00 | 0.00 | 95 | 1005.3 |
| 20260507074101 | 55 | 218 | 2.6 | 5.2 | 0.00 | 0.00 | 0.00 | 95 | 1005.4 |
| 20260507073601 | 55 | 211 | 3.5 | 7.0 | 0.00 | 0.00 | 0.00 | 95 | 1005.6 |
| 20260507073101 | 55 | 216 | 4.3 | 8.7 | 0.00 | 0.00 | 0.00 | 95 | 1005.6 |
| 20260507072601 | 55 | 209 | 4.3 | 6.1 | 0.00 | 0.00 | 0.00 | 94 | 1005.6 |
| 20260507072101 | 55 | 213 | 2.6 | 6.1 | 0.00 | 0.00 | 0.00 | 94 | 1005.7 |
| 20260507071601 | 55 | 204 | 3.5 | 7.0 | 0.00 | 0.00 | 0.00 | 95 | 1005.8 |
| 20260507071101 | 55 | 210 | 3.5 | 6.1 | 0.00 | 0.00 | 0.00 | 95 | 1006.0 |
| 20260507070601 | 55 | 217 | 3.5 | 7.8 | 0.00 | 0.00 | 0.00 | 95 | 1006.2 |
| 20260507070101 | 55 | 236 | 3.5 | 5.2 | 0.00 | 0.00 | 0.00 | 95 | 1006.0 |
| 20260507065601 | 55 | 198 | 1.7 | 3.5 | 0.00 | 0.00 | 0.00 | 94 | 1005.8 |
| 20260507065101 | 55 | 203 | 2.6 | 4.3 | 0.00 | 0.00 | 0.00 | 94 | 1005.7 |
| 20260507064601 | 55 | 183 | 0.9 | 2.6 | 0.00 | 0.00 | 0.00 | 94 | 1005.7 |
| 20260507064101 | 54 | 221 | 2.6 | 4.3 | 0.00 | 0.00 | 0.00 | 94 | 1005.8 |
| 20260507063601 | 54 | 227 | 1.7 | 5.2 | 0.00 | 0.00 | 0.00 | 94 | 1005.9 |
| 20260507063101 | 54 | 221 | 2.6 | 7.0 | 0.00 | 0.00 | 0.00 | 94 | 1005.9 |
| 20260507062601 | 54 | 222 | 4.3 | 8.7 | 0.00 | 0.00 | 0.00 | 94 | 1006.0 |
| 20260507062101 | 55 | 213 | 4.3 | 8.7 | 0.00 | 0.00 | 0.00 | 94 | 1005.9 |
| 20260507061601 | 55 | 232 | 6.1 | 9.6 | 0.00 | 0.00 | 0.00 | 94 | 1006.1 |
| 20260507061102 | 55 | 219 | 6.1 | 9.6 | 0.00 | 0.00 | 0.00 | 94 | 1005.8 |
| 20260507060601 | 55 | 233 | 5.2 | 10.4 | 0.00 | 0.00 | 0.00 | 94 | 1006.1 |
| 20260507060101 | 55 | 244 | 5.2 | 12.2 | 0.00 | 0.00 | 0.00 | 94 | 1006.2 |
| 20260507055601 | 55 | 216 | 6.1 | 13.9 | 0.00 | 0.00 | 0.00 | 94 | 1005.8 |
| 20260507055101 | 55 | 215 | 6.1 | 12.2 | 0.00 | 0.00 | 0.00 | 94 | 1005.9 |
| 20260507054702 | 55 | 219 | 6.1 | 12.2 | 0.00 | 0.00 | 0.00 | 94 | 1006.1 |
| 20260507054101 | 55 | 211 | 7.8 | 13.9 | 0.00 | 0.00 | 0.00 | 94 | 1006.2 |
| 20260507053601 | 55 | 215 | 6.1 | 13.0 | 0.00 | 0.00 | 0.00 | 94 | 1006.2 |
| 20260507053100 | 55 | 216 | 7.8 | 15.6 | 0.00 | 0.00 | 0.00 | 94 | 1006.3 |
| 20260507052601 | 55 | 215 | 7.8 | 13.9 | 0.00 | 0.00 | 0.00 | 94 | 1006.5 |
| 20260507052100 | 55 | 229 | 7.8 | 18.2 | 0.00 | 0.00 | 0.00 | 94 | 1006.6 |
| 20260507051601 | 55 | 232 | 9.6 | 19.1 | 0.00 | 0.00 | 0.00 | 94 | 1006.7 |
| 20260507051101 | 56 | 228 | 9.6 | 16.5 | 0.00 | 0.00 | 0.00 | 94 | 1006.9 |
| 20260507050601 | 56 | 222 | 7.8 | 14.8 | 0.00 | 0.00 | 0.00 | 94 | 1006.8 |
| 20260507050100 | 56 | 223 | 7.0 | 16.5 | 0.00 | 0.00 | 0.00 | 94 | 1006.5 |
| 20260507045601 | 56 | 222 | 10.4 | 17.4 | 0.00 | 0.00 | 0.00 | 94 | 1006.6 |
| 20260507045100 | 56 | 225 | 8.7 | 17.4 | 0.00 | 0.00 | 0.00 | 94 | 1006.6 |
| 20260507044601 | 56 | 224 | 10.4 | 18.2 | 0.00 | 0.00 | 0.00 | 94 | 1006.7 |
| 20260507044101 | 56 | 231 | 9.6 | 17.4 | 0.00 | 0.00 | 0.00 | 94 | 1006.7 |
| 20260507043601 | 56 | 236 | 10.4 | 20.9 | 0.00 | 0.00 | 0.00 | 94 | 1006.8 |
| 20260507043101 | 56 | 233 | 12.2 | 19.1 | 0.00 | 0.00 | 0.00 | 94 | 1006.8 |
| 20260507042601 | 56 | 235 | 12.2 | 22.6 | 0.00 | 0.00 | 0.00 | 94 | 1006.8 |
| 20260507042101 | 56 | 237 | 11.3 | 19.1 | 0.00 | 0.00 | 0.00 | 93 | 1007.0 |
| 20260507041602 | 57 | 232 | 10.4 | 20.0 | 0.00 | 0.00 | 0.00 | 94 | 1007.1 |
| 20260507041102 | 57 | 237 | 13.0 | 23.5 | 0.00 | 0.00 | 0.00 | 94 | 1007.1 |
| 20260507040602 | 57 | 237 | 9.6 | 17.4 | 0.00 | 0.00 | 0.00 | 94 | 1007.3 |
| 20260507035602 | 57 | 226 | 7.8 | 16.5 | 0.00 | 0.00 | 0.00 | 94 | 1007.1 |
| 20260507035102 | 57 | 224 | 7.8 | 18.2 | 0.00 | 0.00 | 0.00 | 94 | 1007.0 |
| 20260507034602 | 57 | 220 | 8.7 | 20.0 | 0.00 | 0.00 | 0.00 | 93 | 1007.1 |
| 20260507034102 | 57 | 220 | 7.8 | 20.0 | 0.00 | 0.00 | 0.00 | 94 | 1007.1 |
| 20260507033602 | 57 | 218 | 10.4 | 20.9 | 0.00 | 0.00 | 0.00 | 94 | 1007.1 |
| 20260507033102 | 56 | 223 | 9.6 | 18.2 | 0.00 | 0.00 | 0.00 | 93 | 1007.2 |
| 20260507032602 | 57 | 224 | 10.4 | 20.0 | 0.00 | 0.00 | 0.00 | 93 | 1007.0 |
| 20260507032102 | 57 | 223 | 9.6 | 20.0 | 0.00 | 0.00 | 0.00 | 93 | 1007.0 |
| 20260507031602 | 57 | 222 | 7.8 | 16.5 | 0.00 | 0.00 | 0.00 | 93 | 1006.8 |
| 20260507031102 | 57 | 224 | 9.6 | 21.7 | 0.00 | 0.00 | 0.00 | 93 | 1006.9 |
| 20260507030602 | 57 | 219 | 9.6 | 18.2 | 0.00 | 0.00 | 0.00 | 93 | 1006.7 |
| 20260507025600 | 57 | 218 | 9.6 | 20.9 | 0.00 | 0.00 | 0.00 | 93 | 1006.8 |
| 20260507025102 | 57 | 222 | 8.7 | 18.2 | 0.00 | 0.00 | 0.00 | 93 | 1007.0 |
| 20260507024602 | 57 | 220 | 10.4 | 20.0 | 0.00 | 0.00 | 0.00 | 93 | 1007.1 |
| 20260507024102 | 57 | 220 | 12.2 | 20.9 | 0.00 | 0.00 | 0.00 | 93 | 1007.3 |
| 20260507023601 | 57 | 219 | 10.4 | 19.1 | 0.00 | 0.00 | 0.00 | 93 | 1007.5 |
| 20260507023102 | 57 | 218 | 12.2 | 19.1 | 0.00 | 0.00 | 0.00 | 93 | 1007.5 |
| 20260507022602 | 57 | 223 | 9.6 | 21.7 | 0.00 | 0.00 | 0.00 | 94 | 1007.6 |
| 20260507022102 | 57 | 228 | 9.6 | 20.0 | 0.00 | 0.00 | 0.00 | 93 | 1007.6 |
| 20260507021602 | 57 | 226 | 9.6 | 18.2 | 0.00 | 0.00 | 0.00 | 94 | 1007.8 |
| 20260507021102 | 57 | 227 | 12.2 | 20.9 | 0.00 | 0.00 | 0.00 | 94 | 1007.9 |
| 20260507020602 | 57 | 221 | 8.7 | 20.0 | 0.00 | 0.00 | 0.00 | 94 | 1007.8 |
| 20260507020108 | 57 | 219 | 11.3 | 20.9 | 0.00 | 0.00 | 0.00 | 94 | 1007.7 |
| 20260507015602 | 57 | 227 | 10.4 | 20.0 | 0.00 | 0.00 | 0.00 | 94 | 1007.9 |
| 20260507015100 | 57 | 230 | 10.4 | 20.0 | 0.00 | 0.00 | 0.00 | 94 | 1007.9 |
| 20260507014602 | 57 | 219 | 12.2 | 22.6 | 0.00 | 0.00 | 0.00 | 94 | 1008.0 |
| 20260507014102 | 57 | 222 | 8.7 | 30.4 | 0.00 | 0.00 | 0.00 | 94 | 1008.1 |
| 20260507013602 | 57 | 220 | 10.4 | 24.3 | 0.00 | 0.00 | 0.00 | 94 | 1008.0 |
| 20260507013102 | 57 | 228 | 10.4 | 27.8 | 0.00 | 0.00 | 0.00 | 94 | 1008.1 |
| 20260507012602 | 57 | 227 | 13.0 | 25.2 | 0.00 | 0.00 | 0.00 | 94 | 1008.0 |
| 20260507012102 | 57 | 215 | 10.4 | 27.8 | 0.00 | 0.00 | 0.00 | 94 | 1007.7 |
| 20260507011602 | 57 | 217 | 12.2 | 24.3 | 0.00 | 0.00 | 0.00 | 94 | 1007.9 |
| 20260507011100 | 57 | 220 | 13.0 | 25.2 | 0.00 | 0.00 | 0.00 | 94 | 1008.0 |
| 20260507010602 | 57 | 224 | 8.7 | 25.2 | 0.00 | 0.00 | 0.00 | 94 | 1008.0 |
| 20260507010101 | 57 | 214 | 7.8 | 20.0 | 0.00 | 0.00 | 0.00 | 94 | 1007.9 |
| 20260507005602 | 57 | 222 | 13.9 | 26.1 | 0.00 | 0.00 | 0.00 | 94 | 1008.0 |
| 20260507005100 | 57 | 208 | 8.7 | 22.6 | 0.00 | 0.00 | 0.00 | 94 | 1008.0 |
| 20260507004602 | 56 | 214 | 8.7 | 25.2 | 0.00 | 0.00 | 0.00 | 93 | 1008.0 |
| 20260507004101 | 56 | 214 | 11.3 | 26.1 | 0.00 | 0.00 | 0.00 | 94 | 1008.0 |
| 20260507003601 | 56 | 215 | 11.3 | 23.5 | 0.00 | 0.00 | 0.00 | 93 | 1008.0 |
| 20260507003101 | 56 | 216 | 11.3 | 22.6 | 0.00 | 0.00 | 0.00 | 93 | 1008.1 |
| 20260507002602 | 56 | 208 | 14.8 | 26.1 | 0.00 | 0.00 | 0.00 | 93 | 1007.9 |
| 20260507002101 | 56 | 204 | 11.3 | 20.9 | 0.00 | 0.00 | 0.00 | 93 | 1007.9 |
| 20260507001602 | 56 | 211 | 9.6 | 22.6 | 0.00 | 0.00 | 0.00 | 93 | 1008.0 |
| 20260507001100 | 56 | 211 | 7.0 | 26.1 | 0.00 | 0.00 | 0.00 | 93 | 1007.9 |
| 20260507000602 | 56 | 222 | 10.4 | 21.7 | 0.00 | 0.00 | 0.00 | 93 | 1008.1 |
| 20260507000101 | 56 | 209 | 10.4 | 27.8 | 0.00 | 0.00 | 0.00 | 92 | 1007.8 |
| 20260506235601 | 56 | 205 | 8.7 | 28.7 | 0.00 | 0.00 | 0.00 | 92 | 1007.9 |
| 20260506235101 | 56 | 202 | 10.4 | 27.8 | 0.00 | 0.00 | 0.00 | 92 | 1007.6 |
| 20260506234601 | 56 | 207 | 10.4 | 25.2 | 0.00 | 0.00 | 0.00 | 92 | 1008.0 |
| 20260506234101 | 56 | 213 | 11.3 | 26.1 | 0.00 | 0.00 | 0.00 | 92 | 1008.1 |
| 20260506233602 | 56 | 214 | 11.3 | 24.3 | 0.00 | 0.00 | 0.00 | 91 | 1008.3 |
| 20260506233101 | 56 | 211 | 8.7 | 20.0 | 0.00 | 0.00 | 0.00 | 91 | 1008.4 |
| 20260506232601 | 56 | 207 | 9.6 | 22.6 | 0.00 | 0.00 | 0.00 | 91 | 1008.4 |
| 20260506232100 | 56 | 210 | 11.3 | 25.2 | 0.00 | 0.00 | 0.00 | 91 | 1008.4 |
| 20260506231600 | 56 | 207 | 10.4 | 22.6 | 0.00 | 0.00 | 0.00 | 90 | 1008.5 |
| 20260506231100 | 56 | 209 | 9.6 | 23.5 | 0.00 | 0.00 | 0.00 | 90 | 1008.5 |
| 20260506230600 | 56 | 211 | 8.7 | 21.7 | 0.00 | 0.00 | 0.00 | 90 | 1008.5 |
| 20260506230100 | 56 | 211 | 7.0 | 16.5 | 0.00 | 0.00 | 0.00 | 89 | 1008.5 |
| 20260506225600 | 56 | 213 | 12.2 | 22.6 | 0.00 | 0.00 | 0.00 | 89 | 1008.9 |
| 20260506225059 | 57 | 209 | 11.3 | 26.1 | 0.00 | 0.00 | 0.00 | 88 | 1008.7 |
| 20260506224600 | 57 | 210 | 10.4 | 27.8 | 0.00 | 0.00 | 0.00 | 87 | 1008.9 |
| 20260506224100 | 58 | 212 | 11.3 | 23.5 | 0.00 | 0.00 | 0.00 | 85 | 1008.9 |
| 20260506223600 | 58 | 211 | 10.4 | 20.9 | 0.00 | 0.00 | 0.00 | 85 | 1008.8 |
| 20260506223100 | 58 | 216 | 8.7 | 20.0 | 0.00 | 0.00 | 0.00 | 84 | 1008.7 |
| 20260506222600 | 59 | 211 | 7.8 | 22.6 | 0.00 | 0.00 | 0.00 | 83 | 1008.6 |
| 20260506222100 | 59 | 203 | 10.4 | 21.7 | 0.00 | 0.00 | 0.00 | 83 | 1008.6 |
| 20260506221600 | 59 | 210 | 12.2 | 26.9 | 0.00 | 0.00 | 0.00 | 82 | 1008.6 |
| 20260506221100 | 59 | 204 | 13.0 | 26.1 | 0.00 | 0.00 | 0.00 | 82 | 1008.5 |
| 20260506220600 | 59 | 212 | 11.3 | 27.8 | 0.00 | 0.00 | 0.00 | 82 | 1008.7 |
| 20260506220100 | 59 | 202 | 11.3 | 27.8 | 0.00 | 0.00 | 0.00 | 82 | 1008.7 |
| 20260506215600 | 59 | 199 | 8.7 | 26.1 | 0.00 | 0.00 | 0.00 | 82 | 1008.8 |
| 20260506215100 | 59 | 214 | 13.9 | 24.3 | 0.00 | 0.00 | 0.00 | 83 | 1008.7 |
| 20260506214600 | 58 | 206 | 9.6 | 29.5 | 0.00 | 0.00 | 0.00 | 83 | 1008.8 |
| 20260506214100 | 59 | 202 | 11.3 | 30.4 | 0.00 | 0.00 | 0.00 | 82 | 1009.3 |
| 20260506213600 | 59 | 214 | 12.2 | 26.1 | 0.00 | 0.00 | 0.00 | 82 | 1009.0 |
| 20260506213100 | 59 | 215 | 9.6 | 26.1 | 0.00 | 0.00 | 0.00 | 81 | 1009.1 |
| 20260506212601 | 60 | 212 | 11.3 | 26.1 | 0.00 | 0.00 | 0.00 | 80 | 1009.1 |
| 20260506212059 | 60 | 207 | 8.7 | 24.3 | 0.00 | 0.00 | 0.00 | 80 | 1009.2 |
| 20260506211559 | 60 | 216 | 13.9 | 29.5 | 0.00 | 0.00 | 0.00 | 81 | 1008.9 |
| 20260506211100 | 60 | 213 | 16.5 | 27.8 | 0.00 | 0.00 | 0.00 | 81 | 1008.6 |
| 20260506210559 | 59 | 211 | 12.2 | 28.7 | 0.00 | 0.00 | 0.00 | 81 | 1008.8 |
| 20260506210059 | 59 | 214 | 10.4 | 24.3 | 0.00 | 0.00 | 0.00 | 81 | 1008.9 |
| 20260506205559 | 59 | 210 | 9.6 | 32.2 | 0.00 | 0.00 | 0.00 | 81 | 1009.0 |
| 20260506205100 | 59 | 213 | 14.8 | 26.1 | 0.00 | 0.00 | 0.00 | 81 | 1009.2 |
| 20260506204600 | 59 | 207 | 13.9 | 30.4 | 0.00 | 0.00 | 0.00 | 81 | 1009.2 |
| 20260506204059 | 59 | 214 | 15.6 | 31.3 | 0.00 | 0.00 | 0.00 | 80 | 1009.1 |
| 20260506203600 | 60 | 210 | 13.0 | 26.9 | 0.00 | 0.00 | 0.00 | 80 | 1009.3 |
| 20260506203100 | 60 | 201 | 12.2 | 27.8 | 0.00 | 0.00 | 0.00 | 79 | 1009.3 |
| 20260506202600 | 60 | 209 | 11.3 | 26.1 | 0.00 | 0.00 | 0.00 | 79 | 1009.2 |
| 20260506202059 | 60 | 209 | 11.3 | 22.6 | 0.00 | 0.00 | 0.00 | 79 | 1009.6 |
| 20260506201600 | 59 | 212 | 13.9 | 26.9 | 0.00 | 0.00 | 0.00 | 80 | 1009.6 |
| 20260506201059 | 59 | 216 | 10.4 | 25.2 | 0.00 | 0.00 | 0.00 | 80 | 1009.5 |
| 20260506200559 | 60 | 211 | 12.2 | 27.8 | 0.00 | 0.00 | 0.00 | 79 | 1009.7 |
| 20260506200059 | 60 | 205 | 12.2 | 26.9 | 0.00 | 0.00 | 0.00 | 79 | 1009.6 |
| 20260506195559 | 60 | 212 | 13.0 | 28.7 | 0.00 | 0.00 | 0.00 | 79 | 1009.9 |
| 20260506195059 | 60 | 208 | 9.6 | 31.3 | 0.00 | 0.00 | 0.00 | 79 | 1009.8 |
| 20260506194601 | 60 | 210 | 11.3 | 29.5 | 0.00 | 0.00 | 0.00 | 79 | 1009.7 |
| 20260506194100 | 60 | 213 | 12.2 | 28.7 | 0.00 | 0.00 | 0.00 | 79 | 1009.8 |
| 20260506193600 | 60 | 214 | 13.0 | 24.3 | 0.00 | 0.00 | 0.00 | 79 | 1010.0 |
| 20260506193059 | 60 | 216 | 13.0 | 30.4 | 0.00 | 0.00 | 0.00 | 79 | 1009.8 |